Time,TemperatureF,DewpointF,PressureIn,WindDirection,WindDirectionDegrees,WindSpeedMPH,WindSpeedGustMPH,Humidity,HourlyPrecipIn,Conditions,Clouds,dailyrainin,SoftwareType,DateUTC
2013-10-14 00:01:00,71.1,69.3,30.05,ENE,71,9.0,16.0,94,0.00,,,0.00,Wunderground v.1.15,2013-10-14 04:01:00,
2013-10-14 00:02:00,71.1,69.3,30.05,ENE,76,9.0,16.0,94,0.00,,,0.00,Wunderground v.1.15,2013-10-14 04:02:00,
2013-10-14 00:03:00,71.1,69.3,30.05,ENE,74,12.0,16.0,94,0.00,,,0.00,Wunderground v.1.15,2013-10-14 04:03:00,
2013-10-14 00:08:00,71.2,69.4,30.05,ENE,78,9.0,16.0,94,0.00,,,0.00,Wunderground v.1.15,2013-10-14 04:08:00,
2013-10-14 00:10:00,71.2,69.4,30.05,ENE,74,13.0,13.0,94,0.00,,,0.00,Wunderground v.1.15,2013-10-14 04:10:00,
2013-10-14 00:13:00,71.2,69.4,30.05,ENE,76,12.0,15.0,94,0.00,,,0.00,Wunderground v.1.15,2013-10-14 04:13:00,
2013-10-14 00:18:00,71.2,69.4,30.06,East,79,7.0,15.0,94,0.00,,,0.00,Wunderground v.1.15,2013-10-14 04:18:00,
2013-10-14 00:19:00,71.2,69.4,30.06,East,80,10.0,15.0,94,0.00,,,0.00,Wunderground v.1.15,2013-10-14 04:19:00,
2013-10-14 00:25:00,71.2,69.4,30.05,ENE,61,15.0,15.0,94,0.00,,,0.00,Wunderground v.1.15,2013-10-14 04:25:00,
2013-10-14 00:30:00,71.2,69.4,30.05,ENE,78,11.0,11.0,94,0.00,,,0.00,Wunderground v.1.15,2013-10-14 04:30:00,
2013-10-14 00:35:00,71.2,69.4,30.05,ENE,76,12.0,12.0,94,0.00,,,0.00,Wunderground v.1.15,2013-10-14 04:35:00,
2013-10-14 00:40:00,71.2,69.4,30.05,ENE,74,11.0,11.0,94,0.00,,,0.00,Wunderground v.1.15,2013-10-14 04:40:00,
2013-10-14 00:45:00,71.1,69.3,30.06,East,79,8.0,13.0,94,0.00,,,0.00,Wunderground v.1.15,2013-10-14 04:45:00,
2013-10-14 00:51:00,71.1,69.3,30.06,East,86,9.0,10.0,94,0.00,,,0.00,Wunderground v.1.15,2013-10-14 04:51:00,
2013-10-14 00:56:00,71.1,69.3,30.05,East,82,8.0,10.0,94,0.00,,,0.00,Wunderground v.1.15,2013-10-14 04:56:00,
2013-10-14 01:01:00,71.1,69.0,30.05,ENE,78,10.0,11.0,93,0.00,,,0.00,Wunderground v.1.15,2013-10-14 05:01:00,
2013-10-14 01:07:00,71.1,69.0,30.05,East,86,16.0,16.0,93,0.00,,,0.00,Wunderground v.1.15,2013-10-14 05:07:00,
2013-10-14 01:12:00,71.1,69.0,30.05,ENE,66,6.0,10.0,93,0.00,,,0.00,Wunderground v.1.15,2013-10-14 05:12:00,
2013-10-14 01:17:00,71.0,69.2,30.05,East,85,10.0,11.0,94,0.00,,,0.00,Wunderground v.1.15,2013-10-14 05:17:00,
2013-10-14 01:22:00,71.0,69.2,30.05,East,81,9.0,10.0,94,0.00,,,0.00,Wunderground v.1.15,2013-10-14 05:22:00,
2013-10-14 01:27:00,70.8,69.0,30.05,East,85,9.0,15.0,94,0.00,,,0.00,Wunderground v.1.15,2013-10-14 05:27:00,
2013-10-14 01:32:00,70.8,69.0,30.05,East,89,11.0,11.0,94,0.00,,,0.00,Wunderground v.1.15,2013-10-14 05:32:00,
2013-10-14 01:37:00,70.8,68.7,30.05,East,86,8.0,13.0,93,0.00,,,0.00,Wunderground v.1.15,2013-10-14 05:37:00,
2013-10-14 01:43:00,70.8,68.7,30.04,East,83,5.0,13.0,93,0.00,,,0.00,Wunderground v.1.15,2013-10-14 05:43:00,
2013-10-14 01:48:00,70.8,68.7,30.05,ENE,78,5.0,13.0,93,0.00,,,0.00,Wunderground v.1.15,2013-10-14 05:48:00,
2013-10-14 01:53:00,70.9,68.8,30.05,East,89,9.0,12.0,93,0.00,,,0.00,Wunderground v.1.15,2013-10-14 05:53:00,
2013-10-14 01:58:00,71.0,69.2,30.05,East,80,12.0,12.0,94,0.00,,,0.00,Wunderground v.1.15,2013-10-14 05:58:00,
2013-10-14 02:03:00,71.1,69.3,30.05,East,84,8.0,16.0,94,0.00,,,0.00,Wunderground v.1.15,2013-10-14 06:03:00,
2013-10-14 02:08:00,71.1,69.3,30.05,ENE,73,9.0,16.0,94,0.00,,,0.00,Wunderground v.1.15,2013-10-14 06:08:00,
2013-10-14 02:13:00,71.1,69.3,30.06,East,83,11.0,16.0,94,0.00,,,0.00,Wunderground v.1.15,2013-10-14 06:13:00,
2013-10-14 02:18:00,71.1,69.3,30.06,ENE,75,9.0,16.0,94,0.00,,,0.00,Wunderground v.1.15,2013-10-14 06:18:00,
2013-10-14 02:23:00,71.1,69.3,30.05,East,83,11.0,16.0,94,0.00,,,0.00,Wunderground v.1.15,2013-10-14 06:23:00,
2013-10-14 02:28:00,71.1,69.3,30.05,ENE,70,12.0,17.0,94,0.00,,,0.00,Wunderground v.1.15,2013-10-14 06:28:00,
2013-10-14 02:33:00,71.1,69.3,30.05,ENE,77,14.0,14.0,94,0.00,,,0.00,Wunderground v.1.15,2013-10-14 06:33:00,
2013-10-14 02:38:00,71.1,69.3,30.05,East,80,9.0,16.0,94,0.00,,,0.00,Wunderground v.1.15,2013-10-14 06:38:00,
2013-10-14 02:43:00,71.1,69.3,30.04,ENE,78,8.0,13.0,94,0.00,,,0.00,Wunderground v.1.15,2013-10-14 06:43:00,
2013-10-14 02:48:00,71.0,69.5,30.04,ENE,75,10.0,15.0,95,0.00,,,0.00,Wunderground v.1.15,2013-10-14 06:48:00,
2013-10-14 02:53:00,71.0,69.5,30.05,East,79,10.0,17.0,95,0.00,,,0.00,Wunderground v.1.15,2013-10-14 06:53:00,
2013-10-14 02:58:00,71.0,69.5,30.05,ENE,75,11.0,17.0,95,0.00,,,0.00,Wunderground v.1.15,2013-10-14 06:58:00,
2013-10-14 03:03:00,71.0,69.5,30.04,ENE,69,9.0,16.0,95,0.00,,,0.00,Wunderground v.1.15,2013-10-14 07:03:00,
2013-10-14 03:08:00,71.0,69.5,30.04,ENE,61,11.0,16.0,95,0.00,,,0.00,Wunderground v.1.15,2013-10-14 07:08:00,
2013-10-14 03:13:00,71.1,69.6,30.04,East,80,9.0,14.0,95,0.00,,,0.00,Wunderground v.1.15,2013-10-14 07:13:00,
2013-10-14 03:18:00,71.0,69.5,30.05,ENE,60,13.0,14.0,95,0.00,,,0.00,Wunderground v.1.15,2013-10-14 07:18:00,
2013-10-14 03:23:00,71.1,69.6,30.04,ENE,76,10.0,17.0,95,0.00,,,0.00,Wunderground v.1.15,2013-10-14 07:23:00,
2013-10-14 03:28:00,71.0,69.5,30.05,East,89,5.0,17.0,95,0.00,,,0.00,Wunderground v.1.15,2013-10-14 07:28:00,
2013-10-14 03:33:00,71.0,69.5,30.04,ENE,72,13.0,17.0,95,0.00,,,0.00,Wunderground v.1.15,2013-10-14 07:33:00,
2013-10-14 03:38:00,70.9,69.4,30.05,East,80,11.0,17.0,95,0.00,,,0.00,Wunderground v.1.15,2013-10-14 07:38:00,
2013-10-14 03:43:00,70.9,69.4,30.05,East,83,5.0,16.0,95,0.00,,,0.00,Wunderground v.1.15,2013-10-14 07:43:00,
2013-10-14 03:48:00,70.8,69.3,30.05,East,79,11.0,16.0,95,0.00,,,0.00,Wunderground v.1.15,2013-10-14 07:48:00,
2013-10-14 03:53:00,70.8,69.3,30.05,ENE,70,12.0,16.0,95,0.00,,,0.00,Wunderground v.1.15,2013-10-14 07:53:00,
2013-10-14 03:58:00,70.9,69.4,30.05,ENE,68,10.0,18.0,95,0.00,,,0.00,Wunderground v.1.15,2013-10-14 07:58:00,
2013-10-14 04:03:00,70.9,69.4,30.05,ENE,76,12.0,20.0,95,0.00,,,0.00,Wunderground v.1.15,2013-10-14 08:03:00,
2013-10-14 04:08:00,70.9,69.4,30.05,ENE,65,9.0,20.0,95,0.00,,,0.00,Wunderground v.1.15,2013-10-14 08:08:00,
2013-10-14 04:14:00,70.8,69.3,30.05,East,79,12.0,17.0,95,0.00,,,0.00,Wunderground v.1.15,2013-10-14 08:14:00,
2013-10-14 04:19:00,70.8,69.3,30.05,ENE,71,10.0,17.0,95,0.00,,,0.00,Wunderground v.1.15,2013-10-14 08:19:00,
2013-10-14 04:24:00,70.8,69.0,30.05,ENE,73,12.0,15.0,94,0.00,,,0.00,Wunderground v.1.15,2013-10-14 08:24:00,
2013-10-14 04:29:00,70.8,69.0,30.05,East,81,13.0,16.0,94,0.00,,,0.00,Wunderground v.1.15,2013-10-14 08:29:00,
2013-10-14 04:34:00,70.8,69.0,30.05,ENE,74,13.0,15.0,94,0.00,,,0.00,Wunderground v.1.15,2013-10-14 08:34:00,
2013-10-14 04:39:00,70.8,69.0,30.05,ENE,71,10.0,17.0,94,0.00,,,0.00,Wunderground v.1.15,2013-10-14 08:39:00,
2013-10-14 04:44:00,70.8,69.0,30.05,ENE,57,14.0,14.0,94,0.00,,,0.00,Wunderground v.1.15,2013-10-14 08:44:00,
2013-10-14 04:49:00,70.8,68.7,30.05,East,85,13.0,19.0,93,0.00,,,0.00,Wunderground v.1.15,2013-10-14 08:49:00,
2013-10-14 04:54:00,70.8,68.7,30.05,ENE,71,11.0,16.0,93,0.00,,,0.00,Wunderground v.1.15,2013-10-14 08:54:00,
2013-10-14 04:59:00,70.9,68.8,30.06,ENE,73,13.0,16.0,93,0.00,,,0.00,Wunderground v.1.15,2013-10-14 08:59:00,
2013-10-14 05:04:00,70.9,68.8,30.06,ENE,68,17.0,17.0,93,0.00,,,0.00,Wunderground v.1.15,2013-10-14 09:04:00,
2013-10-14 05:09:00,70.9,68.8,30.05,ENE,68,12.0,18.0,93,0.00,,,0.00,Wunderground v.1.15,2013-10-14 09:09:00,
2013-10-14 05:14:00,70.9,69.1,30.06,ENE,68,12.0,18.0,94,0.00,,,0.00,Wunderground v.1.15,2013-10-14 09:14:00,
2013-10-14 05:19:00,70.9,69.1,30.06,ENE,69,12.0,18.0,94,0.00,,,0.00,Wunderground v.1.15,2013-10-14 09:19:00,
2013-10-14 05:24:00,70.8,68.7,30.06,East,85,14.0,21.0,93,0.00,,,0.00,Wunderground v.1.15,2013-10-14 09:24:00,
2013-10-14 05:29:00,70.8,68.7,30.06,ENE,77,15.0,21.0,93,0.00,,,0.00,Wunderground v.1.15,2013-10-14 09:29:00,
2013-10-14 05:34:00,70.9,68.8,30.06,ENE,71,15.0,20.0,93,0.00,,,0.00,Wunderground v.1.15,2013-10-14 09:34:00,
2013-10-14 05:39:00,70.8,68.7,30.06,ENE,60,16.0,22.0,93,0.00,,,0.00,Wunderground v.1.15,2013-10-14 09:39:00,
2013-10-14 05:44:00,70.8,68.7,30.06,ENE,70,17.0,23.0,93,0.00,,,0.00,Wunderground v.1.15,2013-10-14 09:44:00,
2013-10-14 05:49:00,70.7,68.6,30.06,ENE,69,13.0,23.0,93,0.00,,,0.00,Wunderground v.1.15,2013-10-14 09:49:00,
2013-10-14 05:54:00,70.7,68.6,30.06,ENE,70,15.0,20.0,93,0.00,,,0.00,Wunderground v.1.15,2013-10-14 09:54:00,
2013-10-14 05:59:00,70.7,68.6,30.06,ENE,57,13.0,24.0,93,0.00,,,0.00,Wunderground v.1.15,2013-10-14 09:59:00,
2013-10-14 06:04:00,70.7,68.3,30.05,ENE,75,14.0,20.0,92,0.00,,,0.00,Wunderground v.1.15,2013-10-14 10:04:00,
2013-10-14 06:09:00,70.8,68.4,30.06,ENE,71,13.0,21.0,92,0.00,,,0.00,Wunderground v.1.15,2013-10-14 10:09:00,
2013-10-14 06:14:00,70.8,68.4,30.06,ENE,66,18.0,21.0,92,0.00,,,0.00,Wunderground v.1.15,2013-10-14 10:14:00,
2013-10-14 06:19:00,70.9,68.5,30.06,ENE,60,15.0,21.0,92,0.00,,,0.00,Wunderground v.1.15,2013-10-14 10:19:00,
2013-10-14 06:24:00,71.0,68.6,30.06,ENE,67,14.0,19.0,92,0.00,,,0.00,Wunderground v.1.15,2013-10-14 10:24:00,
2013-10-14 06:29:00,71.0,68.6,30.06,ENE,64,14.0,24.0,92,0.00,,,0.00,Wunderground v.1.15,2013-10-14 10:29:00,
2013-10-14 06:34:00,70.9,68.5,30.06,ENE,63,11.0,19.0,92,0.00,,,0.00,Wunderground v.1.15,2013-10-14 10:34:00,
2013-10-14 06:39:00,70.8,68.4,30.06,ENE,66,13.0,20.0,92,0.00,,,0.00,Wunderground v.1.15,2013-10-14 10:39:00,
2013-10-14 06:44:00,71.0,68.2,30.06,ENE,65,14.0,19.0,91,0.00,,,0.00,Wunderground v.1.15,2013-10-14 10:44:00,
2013-10-14 06:49:00,71.1,68.7,30.06,ENE,68,17.0,20.0,92,0.00,,,0.00,Wunderground v.1.15,2013-10-14 10:49:00,
2013-10-14 06:54:00,71.1,68.7,30.07,ENE,69,13.0,18.0,92,0.00,,,0.00,Wunderground v.1.15,2013-10-14 10:54:00,
2013-10-14 06:59:00,71.0,68.6,30.07,ENE,61,12.0,20.0,92,0.00,,,0.00,Wunderground v.1.15,2013-10-14 10:59:00,
2013-10-14 07:04:00,71.0,68.6,30.07,ENE,71,11.0,18.0,92,0.00,,,0.00,Wunderground v.1.15,2013-10-14 11:04:00,
2013-10-14 07:09:00,70.9,68.5,30.07,ENE,60,15.0,24.0,92,0.00,,,0.00,Wunderground v.1.15,2013-10-14 11:09:00,
2013-10-14 07:14:00,71.0,68.6,30.07,ENE,76,15.0,21.0,92,0.00,,,0.00,Wunderground v.1.15,2013-10-14 11:14:00,
2013-10-14 07:19:00,71.0,68.6,30.07,ENE,69,17.0,21.0,92,0.00,,,0.00,Wunderground v.1.15,2013-10-14 11:19:00,
2013-10-14 07:24:00,71.0,68.9,30.07,ENE,67,13.0,20.0,93,0.00,,,0.00,Wunderground v.1.15,2013-10-14 11:24:00,
2013-10-14 07:29:00,71.0,68.9,30.07,ENE,65,20.0,22.0,93,0.00,,,0.00,Wunderground v.1.15,2013-10-14 11:29:00,
2013-10-14 07:34:00,71.0,68.9,30.07,ENE,77,23.0,23.0,93,0.00,,,0.00,Wunderground v.1.15,2013-10-14 11:34:00,
2013-10-14 07:39:00,71.0,68.9,30.07,ENE,76,18.0,23.0,93,0.00,,,0.00,Wunderground v.1.15,2013-10-14 11:39:00,
2013-10-14 07:45:00,71.0,68.9,30.07,ENE,63,11.0,26.0,93,0.00,,,0.00,Wunderground v.1.15,2013-10-14 11:45:00,
2013-10-14 07:50:00,71.0,68.9,30.08,ENE,64,11.0,15.0,93,0.00,,,0.00,Wunderground v.1.15,2013-10-14 11:50:00,
2013-10-14 07:55:00,70.9,68.8,30.08,ENE,58,22.0,23.0,93,0.00,,,0.00,Wunderground v.1.15,2013-10-14 11:55:00,
2013-10-14 08:00:00,70.9,68.8,30.08,ENE,63,15.0,23.0,93,0.00,,,0.00,Wunderground v.1.15,2013-10-14 12:00:00,
2013-10-14 08:05:00,70.8,68.7,30.08,ENE,64,12.0,21.0,93,0.00,,,0.00,Wunderground v.1.15,2013-10-14 12:05:00,
2013-10-14 08:10:00,70.8,68.7,30.08,ENE,70,13.0,15.0,93,0.00,,,0.00,Wunderground v.1.15,2013-10-14 12:10:00,
2013-10-14 08:15:00,70.8,68.7,30.08,ENE,76,12.0,22.0,93,0.00,,,0.00,Wunderground v.1.15,2013-10-14 12:15:00,
2013-10-14 08:19:00,70.8,68.7,30.08,ENE,66,14.0,22.0,93,0.00,,,0.00,Wunderground v.1.15,2013-10-14 12:19:00,
2013-10-14 08:24:00,70.8,69.0,30.08,ENE,78,15.0,22.0,94,0.00,,,0.00,Wunderground v.1.15,2013-10-14 12:24:00,
2013-10-14 08:29:00,70.9,69.1,30.08,ENE,65,16.0,22.0,94,0.00,,,0.00,Wunderground v.1.15,2013-10-14 12:29:00,
2013-10-14 08:34:00,71.0,68.9,30.09,ENE,67,12.0,21.0,93,0.00,,,0.00,Wunderground v.1.15,2013-10-14 12:34:00,
2013-10-14 08:39:00,70.9,68.8,30.09,ENE,69,14.0,22.0,93,0.00,,,0.00,Wunderground v.1.15,2013-10-14 12:39:00,
2013-10-14 08:45:00,71.0,68.9,30.09,ENE,70,18.0,20.0,93,0.00,,,0.00,Wunderground v.1.15,2013-10-14 12:45:00,
2013-10-14 08:50:00,71.0,68.9,30.09,ENE,75,11.0,18.0,93,0.00,,,0.00,Wunderground v.1.15,2013-10-14 12:50:00,
2013-10-14 08:55:00,71.0,68.9,30.09,ENE,64,15.0,20.0,93,0.00,,,0.00,Wunderground v.1.15,2013-10-14 12:55:00,
2013-10-14 09:00:00,71.0,68.9,30.09,ENE,77,17.0,19.0,93,0.00,,,0.00,Wunderground v.1.15,2013-10-14 13:00:00,
2013-10-14 09:05:00,71.0,68.9,30.09,ENE,62,14.0,21.0,93,0.00,,,0.00,Wunderground v.1.15,2013-10-14 13:05:00,
2013-10-14 09:10:00,71.0,68.9,30.09,ENE,71,15.0,17.0,93,0.00,,,0.00,Wunderground v.1.15,2013-10-14 13:10:00,
2013-10-14 09:15:00,71.1,69.0,30.09,East,83,12.0,18.0,93,0.00,,,0.00,Wunderground v.1.15,2013-10-14 13:15:00,
2013-10-14 09:20:00,71.2,69.1,30.09,ENE,71,15.0,17.0,93,0.00,,,0.00,Wunderground v.1.15,2013-10-14 13:20:00,
2013-10-14 09:25:00,71.2,68.8,30.09,NE,49,13.0,22.0,92,0.00,,,0.00,Wunderground v.1.15,2013-10-14 13:25:00,
2013-10-14 09:30:00,71.2,68.8,30.09,ENE,69,13.0,17.0,92,0.00,,,0.00,Wunderground v.1.15,2013-10-14 13:30:00,
2013-10-14 09:35:00,71.2,68.8,30.09,ENE,77,15.0,22.0,92,0.00,,,0.00,Wunderground v.1.15,2013-10-14 13:35:00,
2013-10-14 09:40:00,71.2,68.8,30.09,ENE,58,14.0,19.0,92,0.00,,,0.00,Wunderground v.1.15,2013-10-14 13:40:00,
2013-10-14 09:45:00,71.3,69.2,30.09,ENE,71,17.0,22.0,93,0.00,,,0.00,Wunderground v.1.15,2013-10-14 13:45:00,
2013-10-14 09:50:00,71.3,68.9,30.09,ENE,69,14.0,16.0,92,0.00,,,0.00,Wunderground v.1.15,2013-10-14 13:50:00,
2013-10-14 09:55:00,71.3,68.9,30.09,ENE,65,16.0,22.0,92,0.00,,,0.00,Wunderground v.1.15,2013-10-14 13:55:00,
2013-10-14 10:00:00,71.2,68.8,30.09,ENE,63,15.0,21.0,92,0.00,,,0.00,Wunderground v.1.15,2013-10-14 14:00:00,
2013-10-14 10:06:00,71.2,68.8,30.09,ENE,63,14.0,25.0,92,0.00,,,0.00,Wunderground v.1.15,2013-10-14 14:06:00,
2013-10-14 10:11:00,71.0,68.6,30.09,ENE,69,14.0,21.0,92,0.00,,,0.00,Wunderground v.1.15,2013-10-14 14:11:00,
2013-10-14 10:16:00,71.0,68.6,30.08,NE,51,16.0,22.0,92,0.00,,,0.00,Wunderground v.1.15,2013-10-14 14:16:00,
2013-10-14 10:21:00,71.0,68.9,30.09,ENE,57,15.0,20.0,93,0.00,,,0.00,Wunderground v.1.15,2013-10-14 14:21:00,
2013-10-14 10:26:00,71.0,68.9,30.09,ENE,68,16.0,22.0,93,0.00,,,0.00,Wunderground v.1.15,2013-10-14 14:26:00,
2013-10-14 10:31:00,71.0,68.6,30.09,ENE,68,13.0,25.0,92,0.00,,,0.00,Wunderground v.1.15,2013-10-14 14:31:00,
2013-10-14 10:36:00,71.0,68.6,30.09,East,80,9.0,25.0,92,0.00,,,0.00,Wunderground v.1.15,2013-10-14 14:36:00,
2013-10-14 10:41:00,70.9,68.8,30.10,ENE,61,15.0,21.0,93,0.00,,,0.00,Wunderground v.1.15,2013-10-14 14:41:00,
2013-10-14 10:46:00,70.9,68.8,30.09,ENE,65,13.0,21.0,93,0.00,,,0.00,Wunderground v.1.15,2013-10-14 14:46:00,
2013-10-14 10:51:00,70.9,68.8,30.09,East,83,17.0,25.0,93,0.00,,,0.00,Wunderground v.1.15,2013-10-14 14:51:00,
2013-10-14 10:56:00,71.2,69.1,30.09,ENE,63,18.0,25.0,93,0.00,,,0.00,Wunderground v.1.15,2013-10-14 14:56:00,
2013-10-14 11:01:00,71.4,69.0,30.09,ENE,59,13.0,20.0,92,0.00,,,0.00,Wunderground v.1.15,2013-10-14 15:01:00,
2013-10-14 11:06:00,71.4,69.0,30.09,NE,55,20.0,23.0,92,0.00,,,0.00,Wunderground v.1.15,2013-10-14 15:06:00,
2013-10-14 11:11:00,71.3,68.5,30.09,ENE,69,12.0,23.0,91,0.00,,,0.00,Wunderground v.1.15,2013-10-14 15:11:00,
2013-10-14 11:16:00,71.4,68.6,30.09,ENE,65,15.0,23.0,91,0.00,,,0.00,Wunderground v.1.15,2013-10-14 15:16:00,
2013-10-14 11:21:00,71.3,68.5,30.09,ENE,65,14.0,21.0,91,0.00,,,0.00,Wunderground v.1.15,2013-10-14 15:21:00,
2013-10-14 11:26:00,71.3,68.5,30.10,East,80,16.0,21.0,91,0.00,,,0.00,Wunderground v.1.15,2013-10-14 15:26:00,
2013-10-14 11:31:00,71.3,68.5,30.09,ENE,63,17.0,21.0,91,0.00,,,0.00,Wunderground v.1.15,2013-10-14 15:31:00,
2013-10-14 11:36:00,71.5,68.7,30.09,ENE,68,14.0,22.0,91,0.00,,,0.00,Wunderground v.1.15,2013-10-14 15:36:00,
2013-10-14 11:41:00,71.5,68.7,30.08,ENE,66,20.0,26.0,91,0.00,,,0.00,Wunderground v.1.15,2013-10-14 15:41:00,
2013-10-14 11:46:00,71.5,68.7,30.08,ENE,71,18.0,26.0,91,0.00,,,0.00,Wunderground v.1.15,2013-10-14 15:46:00,
2013-10-14 11:51:00,71.6,68.8,30.08,ENE,74,18.0,20.0,91,0.00,,,0.00,Wunderground v.1.15,2013-10-14 15:51:00,
2013-10-14 11:56:00,71.6,68.5,30.08,ENE,75,19.0,23.0,90,0.00,,,0.00,Wunderground v.1.15,2013-10-14 15:56:00,
2013-10-14 12:01:00,71.8,68.7,30.08,ENE,63,15.0,20.0,90,0.00,,,0.00,Wunderground v.1.15,2013-10-14 16:01:00,
2013-10-14 12:06:00,71.8,68.7,30.08,ENE,59,18.0,26.0,90,0.00,,,0.01,Wunderground v.1.15,2013-10-14 16:06:00,
2013-10-14 12:11:00,71.6,68.5,30.08,ENE,74,20.0,23.0,90,0.00,,,0.01,Wunderground v.1.15,2013-10-14 16:11:00,
2013-10-14 12:16:00,71.5,68.4,30.08,ENE,77,14.0,24.0,90,0.00,,,0.01,Wunderground v.1.15,2013-10-14 16:16:00,
2013-10-14 12:21:00,71.6,68.5,30.07,ENE,66,18.0,25.0,90,0.00,,,0.01,Wunderground v.1.15,2013-10-14 16:21:00,
2013-10-14 12:26:00,71.5,68.7,30.07,ENE,69,26.0,27.0,91,0.00,,,0.01,Wunderground v.1.15,2013-10-14 16:26:00,
2013-10-14 12:31:00,71.6,68.8,30.07,ENE,68,16.0,22.0,91,0.00,,,0.01,Wunderground v.1.15,2013-10-14 16:31:00,
2013-10-14 12:36:00,71.7,68.6,30.08,ENE,71,9.0,24.0,90,0.00,,,0.01,Wunderground v.1.15,2013-10-14 16:36:00,
2013-10-14 12:41:00,71.7,68.6,30.08,ENE,71,18.0,21.0,90,0.00,,,0.01,Wunderground v.1.15,2013-10-14 16:41:00,
2013-10-14 12:46:00,71.6,68.5,30.07,ENE,63,15.0,25.0,90,0.00,,,0.01,Wunderground v.1.15,2013-10-14 16:46:00,
2013-10-14 12:51:00,71.5,68.4,30.07,ENE,58,18.0,24.0,90,0.00,,,0.01,Wunderground v.1.15,2013-10-14 16:51:00,
2013-10-14 12:56:00,71.5,68.4,30.07,ENE,62,18.0,24.0,90,0.00,,,0.01,Wunderground v.1.15,2013-10-14 16:56:00,
2013-10-14 13:01:00,71.5,68.4,30.07,East,82,15.0,22.0,90,0.00,,,0.01,Wunderground v.1.15,2013-10-14 17:01:00,
2013-10-14 13:06:00,71.4,68.6,30.07,ENE,62,18.0,25.0,91,0.00,,,0.01,Wunderground v.1.15,2013-10-14 17:06:00,
2013-10-14 13:11:00,71.3,68.2,30.07,NE,53,18.0,24.0,90,0.00,,,0.01,Wunderground v.1.15,2013-10-14 17:11:00,
2013-10-14 13:16:00,71.2,68.1,30.07,NE,53,23.0,26.0,90,0.00,,,0.01,Wunderground v.1.15,2013-10-14 17:16:00,
2013-10-14 13:21:00,71.3,68.5,30.07,ENE,60,12.0,18.0,91,0.00,,,0.01,Wunderground v.1.15,2013-10-14 17:21:00,
2013-10-14 13:26:00,71.5,68.4,30.06,ENE,65,14.0,26.0,90,0.00,,,0.01,Wunderground v.1.15,2013-10-14 17:26:00,
2013-10-14 13:31:00,71.6,68.5,30.06,ENE,63,18.0,23.0,90,0.00,,,0.01,Wunderground v.1.15,2013-10-14 17:31:00,
2013-10-14 13:36:00,71.7,68.6,30.07,ENE,66,20.0,26.0,90,0.00,,,0.01,Wunderground v.1.15,2013-10-14 17:36:00,
2013-10-14 13:41:00,71.7,68.3,30.07,East,82,17.0,24.0,89,0.00,,,0.01,Wunderground v.1.15,2013-10-14 17:41:00,
2013-10-14 13:46:00,71.8,68.4,30.06,ENE,68,20.0,26.0,89,0.00,,,0.01,Wunderground v.1.15,2013-10-14 17:46:00,
2013-10-14 13:51:00,71.8,68.4,30.06,ENE,62,16.0,23.0,89,0.00,,,0.01,Wunderground v.1.15,2013-10-14 17:51:00,
2013-10-14 13:56:00,71.6,68.2,30.06,ENE,59,24.0,25.0,89,0.00,,,0.01,Wunderground v.1.15,2013-10-14 17:56:00,
2013-10-14 14:01:00,71.7,68.3,30.06,ENE,71,16.0,25.0,89,0.00,,,0.01,Wunderground v.1.15,2013-10-14 18:01:00,
2013-10-14 14:07:00,71.6,68.2,30.06,ENE,69,18.0,25.0,89,0.00,,,0.01,Wunderground v.1.15,2013-10-14 18:07:00,
2013-10-14 14:12:00,71.4,68.0,30.06,ENE,73,18.0,27.0,89,0.00,,,0.01,Wunderground v.1.15,2013-10-14 18:12:00,
2013-10-14 14:17:00,71.3,67.9,30.06,ENE,62,15.0,27.0,89,0.00,,,0.01,Wunderground v.1.15,2013-10-14 18:17:00,
2013-10-14 14:22:00,71.1,67.7,30.06,ENE,66,16.0,27.0,89,0.00,,,0.01,Wunderground v.1.15,2013-10-14 18:22:00,
2013-10-14 14:27:00,71.1,68.0,30.06,ENE,74,13.0,27.0,90,0.00,,,0.01,Wunderground v.1.15,2013-10-14 18:27:00,
2013-10-14 14:32:00,71.1,68.0,30.05,NE,55,24.0,24.0,90,0.00,,,0.01,Wunderground v.1.15,2013-10-14 18:32:00,
2013-10-14 14:37:00,71.1,68.0,30.05,ENE,71,13.0,26.0,90,0.00,,,0.01,Wunderground v.1.15,2013-10-14 18:37:00,
2013-10-14 14:42:00,71.2,68.1,30.05,ENE,71,21.0,22.0,90,0.00,,,0.01,Wunderground v.1.15,2013-10-14 18:42:00,
2013-10-14 14:47:00,71.2,68.1,30.05,ENE,71,21.0,22.0,90,0.00,,,0.01,Wunderground v.1.15,2013-10-14 18:47:00,
2013-10-14 14:52:00,71.1,68.0,30.04,ENE,77,14.0,23.0,90,0.00,,,0.01,Wunderground v.1.15,2013-10-14 18:52:00,
2013-10-14 14:57:00,71.0,67.9,30.04,ENE,67,19.0,29.0,90,0.00,,,0.01,Wunderground v.1.15,2013-10-14 18:57:00,
2013-10-14 15:02:00,70.9,67.8,30.05,ENE,69,16.0,27.0,90,0.00,,,0.01,Wunderground v.1.15,2013-10-14 19:02:00,
2013-10-14 15:07:00,70.9,67.8,30.04,ENE,63,20.0,28.0,90,0.00,,,0.01,Wunderground v.1.15,2013-10-14 19:07:00,
2013-10-14 15:12:00,71.0,67.9,30.04,ENE,69,17.0,25.0,90,0.00,,,0.01,Wunderground v.1.15,2013-10-14 19:12:00,
2013-10-14 15:17:00,70.9,67.8,30.04,ENE,57,16.0,25.0,90,0.00,,,0.01,Wunderground v.1.15,2013-10-14 19:17:00,
2013-10-14 15:22:00,71.0,67.9,30.04,ENE,67,15.0,24.0,90,0.00,,,0.01,Wunderground v.1.15,2013-10-14 19:22:00,
2013-10-14 15:27:00,71.0,67.9,30.04,East,83,18.0,28.0,90,0.00,,,0.01,Wunderground v.1.15,2013-10-14 19:27:00,
2013-10-14 15:33:00,70.9,67.5,30.04,ENE,59,16.0,27.0,89,0.00,,,0.01,Wunderground v.1.15,2013-10-14 19:33:00,
2013-10-14 15:38:00,71.0,67.6,30.04,ENE,66,13.0,27.0,89,0.00,,,0.01,Wunderground v.1.15,2013-10-14 19:38:00,
2013-10-14 15:43:00,71.1,68.0,30.04,ENE,60,16.0,22.0,90,0.00,,,0.01,Wunderground v.1.15,2013-10-14 19:43:00,
2013-10-14 15:48:00,71.0,67.6,30.04,ENE,68,21.0,24.0,89,0.00,,,0.01,Wunderground v.1.15,2013-10-14 19:48:00,
2013-10-14 15:53:00,70.9,67.5,30.04,ENE,61,17.0,26.0,89,0.00,,,0.01,Wunderground v.1.15,2013-10-14 19:53:00,
2013-10-14 15:58:00,70.9,67.5,30.04,ENE,61,18.0,27.0,89,0.00,,,0.01,Wunderground v.1.15,2013-10-14 19:58:00,
2013-10-14 16:03:00,70.9,67.8,30.05,ENE,68,15.0,25.0,90,0.00,,,0.01,Wunderground v.1.15,2013-10-14 20:03:00,
2013-10-14 16:08:00,70.8,67.4,30.05,ENE,58,19.0,28.0,89,0.00,,,0.01,Wunderground v.1.15,2013-10-14 20:08:00,
2013-10-14 16:13:00,70.8,67.7,30.05,ENE,65,14.0,22.0,90,0.00,,,0.01,Wunderground v.1.15,2013-10-14 20:13:00,
2013-10-14 16:18:00,70.8,67.7,30.05,ENE,57,18.0,26.0,90,0.00,,,0.01,Wunderground v.1.15,2013-10-14 20:18:00,
2013-10-14 16:23:00,70.7,67.6,30.05,ENE,77,22.0,22.0,90,0.00,,,0.01,Wunderground v.1.15,2013-10-14 20:23:00,
2013-10-14 16:28:00,70.6,67.5,30.05,ENE,71,21.0,26.0,90,0.00,,,0.01,Wunderground v.1.15,2013-10-14 20:28:00,
2013-10-14 16:33:00,70.6,67.2,30.05,ENE,71,22.0,26.0,89,0.00,,,0.01,Wunderground v.1.15,2013-10-14 20:33:00,
2013-10-14 16:38:00,70.7,67.6,30.05,ENE,61,13.0,26.0,90,0.00,,,0.01,Wunderground v.1.15,2013-10-14 20:38:00,
2013-10-14 16:43:00,70.6,67.2,30.05,NE,56,16.0,24.0,89,0.00,,,0.01,Wunderground v.1.15,2013-10-14 20:43:00,
2013-10-14 16:48:00,70.5,67.1,30.04,ENE,63,17.0,27.0,89,0.00,,,0.01,Wunderground v.1.15,2013-10-14 20:48:00,
2013-10-14 16:53:00,70.5,67.1,30.04,ENE,65,17.0,26.0,89,0.00,,,0.01,Wunderground v.1.15,2013-10-14 20:53:00,
2013-10-14 16:58:00,70.5,67.1,30.04,ENE,68,20.0,26.0,89,0.00,,,0.01,Wunderground v.1.15,2013-10-14 20:58:00,
2013-10-14 17:02:00,70.5,67.1,30.05,ENE,69,22.0,26.0,89,0.00,,,0.01,Wunderground v.1.15,2013-10-14 21:02:00,
2013-10-14 17:07:00,70.5,67.1,30.05,ENE,62,20.0,26.0,89,0.00,,,0.01,Wunderground v.1.15,2013-10-14 21:07:00,
2013-10-14 17:12:00,70.4,67.0,30.05,ENE,62,15.0,24.0,89,0.00,,,0.01,Wunderground v.1.15,2013-10-14 21:12:00,
2013-10-14 17:17:00,70.4,67.0,30.05,ENE,69,17.0,25.0,89,0.00,,,0.01,Wunderground v.1.15,2013-10-14 21:17:00,
2013-10-14 17:22:00,70.4,67.0,30.05,ENE,65,19.0,27.0,89,0.00,,,0.01,Wunderground v.1.15,2013-10-14 21:22:00,
2013-10-14 17:27:00,70.3,66.9,30.05,NE,44,23.0,28.0,89,0.00,,,0.01,Wunderground v.1.15,2013-10-14 21:27:00,
2013-10-14 17:32:00,70.4,67.0,30.05,ENE,59,17.0,26.0,89,0.00,,,0.01,Wunderground v.1.15,2013-10-14 21:32:00,
2013-10-14 17:37:00,70.4,67.0,30.05,ENE,76,20.0,28.0,89,0.00,,,0.01,Wunderground v.1.15,2013-10-14 21:37:00,
2013-10-14 17:42:00,70.4,67.0,30.05,NE,41,19.0,26.0,89,0.00,,,0.01,Wunderground v.1.15,2013-10-14 21:42:00,
2013-10-14 17:47:00,70.5,67.1,30.05,ENE,69,18.0,26.0,89,0.00,,,0.01,Wunderground v.1.15,2013-10-14 21:47:00,
2013-10-14 17:52:00,70.5,66.8,30.05,ENE,68,18.0,23.0,88,0.00,,,0.01,Wunderground v.1.15,2013-10-14 21:52:00,
2013-10-14 17:57:00,70.6,66.9,30.05,ENE,57,18.0,27.0,88,0.00,,,0.01,Wunderground v.1.15,2013-10-14 21:57:00,
2013-10-14 18:02:00,70.5,66.8,30.05,ENE,74,14.0,26.0,88,0.00,,,0.01,Wunderground v.1.15,2013-10-14 22:02:00,
2013-10-14 18:07:00,70.5,66.8,30.05,ENE,67,14.0,26.0,88,0.00,,,0.01,Wunderground v.1.15,2013-10-14 22:07:00,
2013-10-14 18:12:00,70.4,66.7,30.05,ENE,77,15.0,25.0,88,0.00,,,0.01,Wunderground v.1.15,2013-10-14 22:12:00,
2013-10-14 18:17:00,70.4,66.7,30.06,ENE,60,15.0,26.0,88,0.00,,,0.01,Wunderground v.1.15,2013-10-14 22:17:00,
2013-10-14 18:22:00,70.4,66.7,30.06,ENE,67,15.0,28.0,88,0.00,,,0.01,Wunderground v.1.15,2013-10-14 22:22:00,
2013-10-14 18:27:00,70.3,66.2,30.06,ENE,66,18.0,28.0,87,0.00,,,0.01,Wunderground v.1.15,2013-10-14 22:27:00,
2013-10-14 18:32:00,70.4,66.7,30.06,East,84,18.0,23.0,88,0.00,,,0.01,Wunderground v.1.15,2013-10-14 22:32:00,
2013-10-14 18:37:00,70.4,66.7,30.06,ENE,66,21.0,28.0,88,0.00,,,0.01,Wunderground v.1.15,2013-10-14 22:37:00,
2013-10-14 18:43:00,70.4,66.7,30.06,ENE,67,15.0,22.0,88,0.00,,,0.01,Wunderground v.1.15,2013-10-14 22:43:00,
2013-10-14 18:48:00,70.3,66.2,30.06,ENE,78,13.0,24.0,87,0.00,,,0.01,Wunderground v.1.15,2013-10-14 22:48:00,
2013-10-14 18:53:00,70.3,66.2,30.06,ENE,70,22.0,27.0,87,0.00,,,0.01,Wunderground v.1.15,2013-10-14 22:53:00,
2013-10-14 18:58:00,70.2,66.1,30.07,ENE,71,16.0,27.0,87,0.00,,,0.01,Wunderground v.1.15,2013-10-14 22:58:00,
2013-10-14 19:03:00,70.3,66.6,30.06,NE,47,16.0,22.0,88,0.00,,,0.01,Wunderground v.1.15,2013-10-14 23:03:00,
2013-10-14 19:08:00,70.3,66.6,30.06,ENE,71,14.0,24.0,88,0.00,,,0.01,Wunderground v.1.15,2013-10-14 23:08:00,
2013-10-14 19:13:00,70.2,66.1,30.07,East,85,22.0,23.0,87,0.00,,,0.01,Wunderground v.1.15,2013-10-14 23:13:00,
2013-10-14 19:18:00,70.2,66.1,30.07,ENE,58,20.0,25.0,87,0.00,,,0.01,Wunderground v.1.15,2013-10-14 23:18:00,
2013-10-14 19:23:00,70.2,66.5,30.06,ENE,65,17.0,22.0,88,0.00,,,0.01,Wunderground v.1.15,2013-10-14 23:23:00,
2013-10-14 19:28:00,70.1,66.0,30.06,ENE,61,16.0,27.0,87,0.00,,,0.01,Wunderground v.1.15,2013-10-14 23:28:00,
2013-10-14 19:33:00,70.2,66.1,30.06,ENE,61,15.0,23.0,87,0.00,,,0.01,Wunderground v.1.15,2013-10-14 23:33:00,
2013-10-14 19:38:00,70.2,66.1,30.06,ENE,68,15.0,25.0,87,0.00,,,0.01,Wunderground v.1.15,2013-10-14 23:38:00,
2013-10-14 19:43:00,70.1,66.0,30.06,East,86,17.0,26.0,87,0.00,,,0.01,Wunderground v.1.15,2013-10-14 23:43:00,
2013-10-14 19:48:00,70.2,66.1,30.07,ENE,64,18.0,26.0,87,0.00,,,0.01,Wunderground v.1.15,2013-10-14 23:48:00,
2013-10-14 19:53:00,70.2,66.1,30.07,ENE,74,19.0,24.0,87,0.00,,,0.01,Wunderground v.1.15,2013-10-14 23:53:00,
2013-10-14 19:58:00,70.3,66.2,30.06,ENE,58,14.0,24.0,87,0.00,,,0.01,Wunderground v.1.15,2013-10-14 23:58:00,
2013-10-14 20:03:00,70.3,66.2,30.06,NE,55,20.0,24.0,87,0.00,,,0.01,Wunderground v.1.15,2013-10-15 00:03:00,
2013-10-14 20:08:00,70.3,66.2,30.06,NE,52,19.0,26.0,87,0.00,,,0.01,Wunderground v.1.15,2013-10-15 00:08:00,
2013-10-14 20:13:00,70.2,66.1,30.06,ENE,64,20.0,28.0,87,0.00,,,0.01,Wunderground v.1.15,2013-10-15 00:13:00,
2013-10-14 20:18:00,70.2,66.1,30.06,ENE,69,22.0,30.0,87,0.00,,,0.01,Wunderground v.1.15,2013-10-15 00:18:00,
2013-10-14 20:23:00,70.1,65.7,30.06,ENE,67,20.0,25.0,86,0.00,,,0.01,Wunderground v.1.15,2013-10-15 00:23:00,
2013-10-14 20:28:00,70.1,65.7,30.06,ENE,65,20.0,27.0,86,0.00,,,0.01,Wunderground v.1.15,2013-10-15 00:28:00,
2013-10-14 20:33:00,70.1,65.7,30.06,ENE,57,17.0,23.0,86,0.00,,,0.01,Wunderground v.1.15,2013-10-15 00:33:00,
2013-10-14 20:38:00,70.1,66.0,30.06,ENE,63,16.0,25.0,87,0.00,,,0.01,Wunderground v.1.15,2013-10-15 00:38:00,
2013-10-14 20:43:00,70.0,65.6,30.07,ENE,64,28.0,28.0,86,0.00,,,0.01,Wunderground v.1.15,2013-10-15 00:43:00,
2013-10-14 20:48:00,70.2,66.1,30.07,NE,53,17.0,28.0,87,0.00,,,0.01,Wunderground v.1.15,2013-10-15 00:48:00,
2013-10-14 20:53:00,70.1,66.0,30.07,ENE,59,22.0,26.0,87,0.00,,,0.01,Wunderground v.1.15,2013-10-15 00:53:00,
2013-10-14 20:58:00,70.1,66.0,30.07,ENE,71,13.0,26.0,87,0.00,,,0.01,Wunderground v.1.15,2013-10-15 00:58:00,
2013-10-14 21:03:00,70.0,66.0,30.07,ENE,65,16.0,27.0,87,0.00,,,0.01,Wunderground v.1.15,2013-10-15 01:03:00,
2013-10-14 21:08:00,70.0,66.0,30.07,NE,48,22.0,27.0,87,0.00,,,0.01,Wunderground v.1.15,2013-10-15 01:08:00,
2013-10-14 21:13:00,69.9,65.9,30.07,ENE,64,22.0,24.0,87,0.00,,,0.01,Wunderground v.1.15,2013-10-15 01:13:00,
2013-10-14 21:18:00,69.9,65.9,30.07,NE,54,19.0,25.0,87,0.00,,,0.01,Wunderground v.1.15,2013-10-15 01:18:00,
2013-10-14 21:23:00,69.9,65.9,30.07,ENE,77,17.0,23.0,87,0.00,,,0.01,Wunderground v.1.15,2013-10-15 01:23:00,
2013-10-14 21:28:00,69.9,65.9,30.07,ENE,74,20.0,25.0,87,0.00,,,0.01,Wunderground v.1.15,2013-10-15 01:28:00,
2013-10-14 21:33:00,69.9,66.2,30.07,NE,53,21.0,25.0,88,0.00,,,0.01,Wunderground v.1.15,2013-10-15 01:33:00,
2013-10-14 21:38:00,69.9,66.2,30.07,ENE,61,16.0,25.0,88,0.00,,,0.01,Wunderground v.1.15,2013-10-15 01:38:00,
2013-10-14 21:43:00,69.8,65.8,30.07,ENE,76,21.0,25.0,87,0.00,,,0.01,Wunderground v.1.15,2013-10-15 01:43:00,
2013-10-14 21:48:00,69.8,65.8,30.07,ENE,76,18.0,25.0,87,0.00,,,0.01,Wunderground v.1.15,2013-10-15 01:48:00,
2013-10-14 21:53:00,69.8,65.8,30.07,East,79,20.0,24.0,87,0.00,,,0.01,Wunderground v.1.15,2013-10-15 01:53:00,
2013-10-14 21:58:00,69.7,65.7,30.07,ENE,65,19.0,25.0,87,0.00,,,0.01,Wunderground v.1.15,2013-10-15 01:58:00,
2013-10-14 22:03:00,69.8,65.8,30.07,ENE,69,17.0,24.0,87,0.00,,,0.01,Wunderground v.1.15,2013-10-15 02:03:00,
2013-10-14 22:08:00,69.7,65.7,30.07,ENE,76,16.0,25.0,87,0.00,,,0.01,Wunderground v.1.15,2013-10-15 02:08:00,
2013-10-14 22:14:00,69.7,65.7,30.07,East,79,20.0,22.0,87,0.00,,,0.01,Wunderground v.1.15,2013-10-15 02:14:00,
2013-10-14 22:19:00,69.6,65.6,30.07,ENE,66,14.0,24.0,87,0.00,,,0.01,Wunderground v.1.15,2013-10-15 02:19:00,
2013-10-14 22:24:00,69.6,65.6,30.07,ENE,68,16.0,24.0,87,0.00,,,0.01,Wunderground v.1.15,2013-10-15 02:24:00,
2013-10-14 22:29:00,69.6,65.6,30.07,ENE,66,18.0,27.0,87,0.00,,,0.01,Wunderground v.1.15,2013-10-15 02:29:00,
2013-10-14 22:34:00,69.5,65.5,30.06,ENE,63,17.0,23.0,87,0.00,,,0.01,Wunderground v.1.15,2013-10-15 02:34:00,
2013-10-14 22:39:00,69.6,65.9,30.06,ENE,57,12.0,25.0,88,0.00,,,0.01,Wunderground v.1.15,2013-10-15 02:39:00,
2013-10-14 22:44:00,69.5,66.1,30.06,ENE,62,15.0,22.0,89,0.00,,,0.01,Wunderground v.1.15,2013-10-15 02:44:00,
2013-10-14 22:49:00,69.3,65.9,30.06,ENE,61,13.0,23.0,89,0.00,,,0.01,Wunderground v.1.15,2013-10-15 02:49:00,
2013-10-14 22:54:00,69.1,65.7,30.06,ENE,71,16.0,23.0,89,0.00,,,0.01,Wunderground v.1.15,2013-10-15 02:54:00,
2013-10-14 22:59:00,69.0,65.9,30.06,ENE,71,17.0,26.0,90,0.00,,,0.01,Wunderground v.1.15,2013-10-15 02:59:00,
2013-10-14 23:04:00,68.9,65.8,30.06,ENE,76,19.0,22.0,90,0.00,,,0.01,Wunderground v.1.15,2013-10-15 03:04:00,
2013-10-14 23:09:00,68.8,65.7,30.06,ENE,74,15.0,24.0,90,0.00,,,0.01,Wunderground v.1.15,2013-10-15 03:09:00,
2013-10-14 23:14:00,68.8,65.7,30.06,ENE,75,14.0,23.0,90,0.00,,,0.01,Wunderground v.1.15,2013-10-15 03:14:00,
2013-10-14 23:19:00,68.8,65.7,30.06,NE,49,18.0,24.0,90,0.00,,,0.01,Wunderground v.1.15,2013-10-15 03:19:00,
2013-10-14 23:24:00,68.7,65.6,30.06,ENE,75,18.0,26.0,90,0.00,,,0.01,Wunderground v.1.15,2013-10-15 03:24:00,
2013-10-14 23:29:00,68.7,65.6,30.06,ENE,63,16.0,26.0,90,0.00,,,0.01,Wunderground v.1.15,2013-10-15 03:29:00,
2013-10-14 23:34:00,68.8,65.7,30.06,ENE,69,14.0,24.0,90,0.00,,,0.01,Wunderground v.1.15,2013-10-15 03:34:00,
2013-10-14 23:39:00,68.7,65.6,30.06,ENE,65,15.0,25.0,90,0.00,,,0.01,Wunderground v.1.15,2013-10-15 03:39:00,
2013-10-14 23:44:00,68.7,65.6,30.06,ENE,63,17.0,26.0,90,0.00,,,0.01,Wunderground v.1.15,2013-10-15 03:44:00,
2013-10-14 23:49:00,68.8,65.7,30.06,ENE,65,15.0,26.0,90,0.00,,,0.01,Wunderground v.1.15,2013-10-15 03:49:00,
2013-10-14 23:54:00,68.8,65.7,30.06,ENE,62,15.0,29.0,90,0.00,,,0.01,Wunderground v.1.15,2013-10-15 03:54:00,
2013-10-14 23:59:00,68.8,65.7,30.06,ENE,57,18.0,29.0,90,0.00,,,0.01,Wunderground v.1.15,2013-10-15 03:59:00,